EW0868 Weather Reports


Display with metric or nautical units.
time (UTC)temp
F
wind
direction
speed
MPH
gust
MPH
rain 1hr
in
rain 24hr
in
rain mn
in
humidity
%
barometer
mb
20200120224537 48 48 0.0 3.0 0.01 0.05 0.05 1 1009.6
20200120223044 48 74 0.0 1.0 0.01 0.05 0.05 1 1009.9
20200120221535 48 73 0.0 0.0 0.01 0.05 0.05 1 1010.1
20200120220036 48 73 0.0 0.0 0.00 0.04 0.04 1 1010.3
20200120214527 49 73 0.0 0.0 0.00 0.04 0.04 1 1010.6
20200120213035 48 73 0.0 2.0 0.00 0.04 0.04 1 1010.7
20200120211544 48 74 0.0 2.0 0.00 0.04 0.04 1 1010.9
20200120210043 48 73 0.0 2.0 0.00 0.04 0.04 1 1011.2
20200120204538 48 71 0.0 1.0 0.00 0.04 0.04 1 1011.4
20200120203025 48 78 1.0 3.0 0.00 0.04 0.04 1 1011.5
20200120201538 48 74 3.0 7.0 0.00 0.04 0.04 1 1011.6
20200120200035 48 81 1.0 5.0 0.00 0.04 0.04 1 1011.9
20200120194529 47 34 2.0 7.0 0.00 0.04 0.04 1 1011.9
20200120193034 47 90 2.0 8.0 0.00 0.04 0.04 1 1012.3
20200120191525 47 90 0.0 4.0 0.00 0.04 0.04 1 1012.6
20200120190028 47 71 1.0 5.0 0.00 0.04 0.04 1 1012.8
20200120184536 47 80 1.0 3.0 0.00 0.04 0.04 1 1012.9
20200120183028 47 51 1.0 3.0 0.00 0.04 0.04 1 1013.1
20200120181537 46 21 1.0 2.0 0.00 0.04 0.04 1 1013.2
20200120180035 46 21 1.0 3.0 0.00 0.05 0.04 1 1013.3
20200120174529 46 47 0.0 0.0 0.00 0.05 0.04 1 1013.3
20200120173033 46 47 0.0 1.0 0.00 0.05 0.04 1 1013.6
20200120171528 46 47 0.0 2.0 0.00 0.05 0.04 1 1013.8
20200120170026 46 47 0.0 1.0 0.00 0.05 0.04 1 1013.9
20200120164536 45 47 0.0 1.0 0.00 0.05 0.04 1 1014.2
20200120163028 45 47 0.0 3.0 0.00 0.05 0.04 1 1014.0
20200120161536 45 48 0.0 2.0 0.01 0.05 0.04 1 1014.1
20200120160038 45 47 0.0 0.0 0.01 0.05 0.04 1 1014.1
20200120154528 45 47 0.0 0.0 0.01 0.05 0.04 1 1013.8
20200120153038 45 47 0.0 0.0 0.01 0.05 0.04 1 1013.8
20200120151529 45 47 0.0 0.0 0.00 0.04 0.03 1 1013.8
20200120150028 45 47 0.0 0.0 0.00 0.04 0.03 1 1013.9
20200120144541 45 47 0.0 1.0 0.00 0.04 0.03 1 1013.8
20200120143029 45 47 0.0 1.0 0.00 0.04 0.03 1 1013.7
20200120141541 46 47 0.0 3.0 0.00 0.04 0.03 1 1013.5
20200120140039 46 103 1.0 4.0 0.00 0.05 0.03 1 1013.4
20200120134530 46 64 1.0 4.0 0.00 0.05 0.03 1 1013.5
20200120133042 46 128 1.0 2.0 0.00 0.05 0.03 1 1013.7
20200120131529 46 128 0.0 3.0 0.00 0.05 0.03 1 1013.8
20200120130032 46 128 0.0 1.0 0.00 0.05 0.03 1 1013.9
20200120124541 46 128 0.0 0.0 0.00 0.05 0.03 1 1013.9
20200120123033 45 128 1.0 3.0 0.00 0.05 0.03 1 1013.9
20200120121543 45 128 0.0 3.0 0.00 0.05 0.03 1 1013.7
20200120120042 45 136 0.0 2.0 0.00 0.05 0.03 1 1013.5
20200120114536 46 136 0.0 2.0 0.00 0.05 0.03 1 1013.5
20200120113042 46 137 0.0 3.0 0.00 0.05 0.03 1 1013.4
20200120111537 45 139 0.0 0.0 0.00 0.05 0.03 1 1013.6
20200120110036 46 139 0.0 2.0 0.00 0.06 0.03 1 1013.6
20200120104526 46 136 0.0 0.0 0.00 0.06 0.03 1 1013.4
20200120103036 45 136 1.0 2.0 0.01 0.06 0.03 1 1013.5
20200120101526 46 136 0.0 1.0 0.02 0.06 0.03 1 1013.5
20200120100028 45 136 0.0 2.0 0.02 0.06 0.03 1 1013.5
20200120094537 46 136 0.0 0.0 0.03 0.06 0.03 1 1013.3
20200120093028 46 136 0.0 1.0 0.02 0.05 0.02 1 1013.3
20200120090035 45 136 1.0 1.0 0.01 0.04 0.01 1 1013.3
20200120084530 45 136 0.0 1.0 0.00 0.03 0.00 1 1013.3
20200120083035 45 136 0.0 1.0 0.00 0.03 0.00 1 1013.6
20200120081530 46 136 0.0 2.0 0.00 0.03 0.00 1 1013.7
20200120080028 46 136 1.0 2.0 0.00 0.03 0.03 1 1014.0
20200120074538 46 138 0.0 0.0 0.00 0.03 0.03 1 1014.2
20200120073028 46 138 0.0 0.0 0.00 0.03 0.03 1 1014.3
20200120071538 46 138 0.0 0.0 0.00 0.03 0.03 1 1014.1
20200120070041 46 138 0.0 0.0 0.00 0.03 0.03 1 1013.8
20200120064531 46 138 0.0 0.0 0.00 0.03 0.03 1 1014.0
20200120063036 46 138 0.0 1.0 0.00 0.03 0.03 1 1013.9
20200120061531 46 79 0.0 0.0 0.00 0.03 0.03 1 1013.8
20200120060028 46 79 0.0 0.0 0.00 0.03 0.03 1 1013.8
20200120054542 46 79 0.0 1.0 0.00 0.03 0.03 1 1013.9
20200120053029 46 79 0.0 0.0 0.00 0.03 0.03 1 1014.1
20200120051542 46 79 0.0 0.0 0.00 0.03 0.03 1 1014.2
20200120050039 46 79 0.0 0.0 0.00 0.03 0.03 1 1014.3
20200120044531 46 79 0.0 1.0 0.00 0.03 0.03 1 1014.3
20200120043040 47 79 0.0 1.0 0.00 0.03 0.03 1 1014.4
20200120041530 47 79 0.0 1.0 0.00 0.03 0.03 1 1014.7
20200120040032 47 79 0.0 0.0 0.00 0.03 0.03 1 1014.7
20200120034543 47 79 1.0 3.0 0.00 0.03 0.03 1 1015.1
20200120033030 47 79 0.0 1.0 0.00 0.03 0.03 1 1015.4
20200120031544 47 79 0.0 0.0 0.00 0.03 0.03 1 1015.7
20200120030042 47 79 0.0 1.0 0.00 0.03 0.03 1 1015.6
20200120024536 48 79 0.0 1.0 0.00 0.03 0.03 1 1015.6
20200120023042 48 79 0.0 2.0 0.00 0.03 0.03 1 1015.8
20200120021536 48 82 0.0 0.0 0.00 0.03 0.03 1 1015.8
20200120020035 48 82 0.0 1.0 0.00 0.04 0.03 1 1015.7
20200120014526 48 82 1.0 2.0 0.00 0.04 0.03 1 1016.0
20200120013036 49 82 0.0 3.0 0.00 0.04 0.03 1 1016.3
20200120011526 49 82 1.0 2.0 0.00 0.04 0.03 1 1016.3
20200120010028 50 82 0.0 0.0 0.00 0.09 0.03 1 1016.2
20200120004538 50 83 2.0 3.0 0.00 0.09 0.03 1 1016.3
20200120003025 50 88 0.0 0.0 0.00 0.09 0.03 1 1016.5
20200120001540 51 16 0.0 3.0 0.00 0.09 0.03 1 1016.5
20200120000038 51 92 0.0 0.0 0.00 0.23 0.03 1 1016.8
20200119234532 51 92 0.0 2.0 0.00 0.23 0.03 1 1016.8
20200119233038 52 111 1.0 7.0 0.00 0.23 0.03 1 1017.1
20200119231531 52 53 1.0 3.0 0.00 0.23 0.03 1 1017.5
20200119230029 52 32 1.0 3.0 0.00 0.32 0.03 1 1017.6